ONEWEB-0222 (48775 NORAD) Tracking and Keplerian Element Data

This shows tracking and keplerian element data for the satellite.

Feedback or suggestion? Click here.




ElementValue
Catalog48775
NameONEWEB-0222
Epoch Orbit188
Epoch Day170.58334491
Epoch Year2021
RAAN268.8489
Inclination87.4077
Eccentricity0.0010515
Argument of Perigee177.6773
Mean Anonmoly79.5683
Mean Motion15.37986599
Decay Rate-0.00887217
L11 48775U 21045J 21170.58334491 -.00887217 00000-0 -25786-1 0 9995
L22 48775 87.4077 268.8489 0010515 177.6773 79.5683 15.37986599 1888

Live tracking and technical data element details for ONEWEB-0222 (NORAD 48775). ONEWEB-0222 can be tracked NOW for your location showing map with azimuth and elevation plus other details from your city location.

Track the satellite on the map from your city or location and see movement details for azimuth, elevation, latitude, longitude, range, height, and movement on the map or in text.







IsCatalogInMostPopularTable: catalog: 48775, numindb: 6
Update: records affected: 1



GetName: 48775 ONEWEB-0222

Hit Count: updated at: Mon, 21 Jun 2021 03:33:26 GMT